AirNav   Air Wisconsin Airman Trainee
 
 825 users online  

OR34 Whippet Field Airport
Sisters, Oregon, USA

GOING TO SISTERS?


FAA INFORMATION EFFECTIVE 28 MARCH 2019

Location

FAA Identifier: OR34
Lat/Long: 44-19-20.4190N / 121-26-00.1530W
44-19.340317N / 121-26.002550W
44.3223386 / -121.4333758
(estimated)
Elevation: 3040 ft. / 926.6 m (surveyed)
Variation: 18E (1985)
From city: 6 miles NE of SISTERS, OR
Time zone: UTC -7 (UTC -8 during Standard Time)
Zip code: 97759

Airport Operations

Airport use: Private use. Permission required prior to landing
Activation date: 02/1989
Control tower: no
ARTCC: SEATTLE CENTER
FSS: MC MINNVILLE FLIGHT SERVICE STATION
Attendance: CONTINUOUS
Wind indicator: yes
Segmented circle: no
Lights: FOR RY LGTS CALL 503-548-0658.

Airport Communications

WX ASOS at RDM (13 nm E): 119.025 (541-504-8743)
WX AWOS-3 at BDN (17 nm SE): 134.425 (541-382-1477)

Nearby radio navigation aids

VOR radial/distance  VOR name  Freq  Var
DSDr289/7.0DESCHUTES VORTAC117.6018E

Airport Services

Runway Information

Runway 6/24

Dimensions: 2450 x 60 ft. / 747 x 18 m
Surface: turf, in fair condition
Runway edge lights: non-standard
RED EDGE LIGHTING EAST 1500 FT OF RY.
RUNWAY 6  RUNWAY 24
Traffic pattern: leftright
Obstructions: trees, 1000 ft. from runway, 17:1 slope to cleartrees, 1500 ft. from runway, 20:1 slope to clear

Airport Ownership and Management from official FAA records

Ownership: Privately-owned
Owner: JON & ELIZABETH RENNER
69695 HOLMES ROAD
SISTERS, OR 97759
Phone 503-548-0658
Manager: JON & ELIZABETH RENNER
69695 HOLMES ROAD
SISTERS, OR 97759
Phone 503-548-0658

Airport Operational Statistics

Aircraft based on the field: 1
Single engine airplanes: 1
    

Instrument Procedures

There are no published instrument procedures at OR34.

Some nearby airports with instrument procedures:

KRDM - Roberts Field Airport (13 nm E)
KBDN - Bend Municipal Airport (17 nm SE)
S39 - Prineville Airport (23 nm E)
S33 - Madras Municipal Airport (24 nm NE)
S21 - Sunriver Airport (27 nm S)
 
Loc | Ops | Rwys | IFR | FBO | Links
Com | Nav | Svcs | Stats | Notes
Area around OR34 (Whippet Field Airport)
 
Road maps at: MapQuest Bing Google
 
Aerial photo
WARNING: Photo may not be current or correct
Aerial photo of OR34 (Whippet Field Airport)
Photo taken 24-Mar-2014
looking east.

Do you have a better or more recent aerial photo of Whippet Field Airport that you would like to share? If so, please send us your photo.

 
Sectional chart

 
Airport distance calculator
Flying to Whippet Field Airport? Find the distance to fly.

From to OR34

Sunrise and sunset
Times for 19-Apr-2019
 Local
(UTC-7)
 Zulu
(UTC)
Morning civil twilight05:4512:45
Sunrise06:1613:16
Sunset19:5402:54
Evening civil twilight20:2403:24

Current date and time
Zulu (UTC)  20-Apr-2019 01:18:00
Local (UTC-7)  19-Apr-2019 18:18:00
 
METAR
6K5 
5nm W 
SuperAWOS
200055Z AUTO 27024G35KT 17/09 A2983
KRDM 
13nm E 
200056Z 31015G23KT 10SM SCT075 BKN100 20/09 A2981 RMK AO2 LTG DSNT E SLP083 T02000089
KBDN 
17nm SE 
200055Z AUTO 34018KT 10SM BKN060 BKN095 BKN110 19/09 A2982 RMK AO2 LTG DSNT NE AND E
TAF
KRDM 
13nm E 
191720Z 1918/2018 VRB05KT P6SM FEW080 SCT250 FM192100 32012G19KT P6SM -SHRA SCT060 BKN080 FM200300 33010KT P6SM -SHRA OVC050 FM200500 34009KT P6SM -RA BKN035 OVC050
KBDN 
17nm SE 
191720Z 1918/2018 22005KT P6SM FEW070 SCT250 FM192100 33012G20KT P6SM -SHRA SCT050 BKN070 FM200300 34011KT P6SM -SHRA OVC040 FM200500 34009KT P6SM -RA SCT030 OVC040
NOTAMs
Click for the latest NOTAMs
NOTAMs are issued by the DoD/FAA and will open in a separate window not controlled by AirNav.

 

 
 

Would you like to see your business listed on this page?

 If your business provides an interesting product or service to pilots, flight crews, aircraft, or users of the Whippet Field Airport, you should consider listing it here.  To start the listing process, click on the button below
 
Add a business
 

Other Pages about Whippet Field Airport

Update a link
 
Copyright © AirNav, LLC. All rights reserved. Privacy Policy  Contact